STARLINK-33769, 63773

Orbit data source: Space-Track

STARLINK-33769, 63773 is a payload satellite owned by SpaceX/Seattle (US) in LEO that was launched on Tue, 29 Apr 2025 UTC via an FALCON 9 launch vehicle from the Air Force Eastern Test Range (AFETR). Payload-class satellites include a variety of spacecraft equipped with specific instruments for various scientific and technological missions. These include communications satellites like Starlink; space stations such as the ISS; scientific satellites like the Hubble; Earth observation satellites from companies like Planet Labs, Umbra, and HawkEye 360; GPS; miniature CubeSats for education and research; and military/defense satellites.

Loading next visibility...
Identifier
63773, 2025-089X
Orbit
LEO
Country
Flag of USUS
Related business
Manufacturer
SpaceX/Seattle
Mission
Operational Commercial Communications
Bus & Motor
STARLINK V2MO, Unknown motor
Mass
575 kg wet, ~530 kg dry
Launch date (UTC)
2025-04-29 (1 year ago)
Launch vehicle
FALCON 9
Launch site
Air Force Eastern Test Range (AFETR)
Object type
Payload
Rocket body
Debris
Shape & HBR
Box + 2 Pan, 17.7 m
Radar Cross Section
36.964 m², Large (>1 m²)

Expand to show TLE details & history
Last TLE update: 18 hours ago

TLE from 18 hours ago
0 STARLINK-33769
1 63773U 25089X   26171.10419512  .00006297  00000-0  23810-3 0  9991
2 63773  43.0014 186.5824 0001422 264.6373  95.4317 15.27585555 64618
Epoch: 2026-06-20T02:30Z
TLE epoch observation values (Epoch: 2026-06-20T02:30:02.458Z)
Latitude
0.00003°
Longitude
-119.25143°
Altitude
482.901 km
Speed
7.626 km/s
True Right ascension
12h 26m 19s
True Declination
0° 00' 00"
Sunlit
Object was in daylight at epoch
Visualization orbit readout
Latitude
Unknown
Longitude
Unknown
Altitude
Unknown
Speed
Unknown
Apparent Right ascension
Unknown
Apparent Declination
Unknown
Sunlit
N/A
Visualization observer readout
Local Sidereal Time
07:17:06
Azimuth
Unknown
Elevation
Unknown
Doppler factor
Unknown
Orbital elements
Apogee altitude
485.953 km
Perigee altitude
484.001 km
Semi-major axis
6,863.114 km
Eccentricity
0.00014
Inclination
43.0014°
RAAN
186.5824°
Arg. of periapsis
264.6373°
True anomaly
95.44792°
Mean anomaly
95.4317°
Eccentric anomaly
95.43981°
Mean motion
3.81734 °/min
Orbital period
94.31 mins
BSTAR
0.0002381
Loading maneuver chart data...
Computing Atmospheric mass density...
Loading historical data...
Loading historical data...
Loading historical data...
Loading historical data...
Loading historical data...
Loading historical data...
Loading historical data...

Documentation

Showing up to 5 results
|